This is the latest recevied weather packets stored in our database for station/object NY3Q. If no packets are shown the sender has not sent any weather packets the latest 10 day(s).
| Time | Temp. | Humidity | Pressure | Rain* | Wind** | Luminosity | Snow |
|---|---|---|---|---|---|---|---|
| 1777906852 | 25° C | 34% | 1018.8 hPa | 0 mm | - | 505 W/m² | - |
| 1777906549 | 25° C | 34% | 1018.9 hPa | 0 mm | - | 495 W/m² | - |
| 1777906244 | 24.44° C | 35% | 1018.9 hPa | 0 mm | - | 485 W/m² | - |
| 1777905941 | 25° C | 34% | 1018.8 hPa | 0 mm | - | 475 W/m² | - |
| 1777905638 | 25° C | 36% | 1018.8 hPa | 0 mm | - | 462 W/m² | - |
| 1777905335 | 24.44° C | 37% | 1018.7 hPa | 0 mm | - | 453 W/m² | - |
| 1777905033 | 24.44° C | 36% | 1019 hPa | 0 mm | - | 441 W/m² | - |
| 1777904730 | 24.44° C | 36% | 1018.9 hPa | 0 mm | - | 429 W/m² | - |
| 1777904427 | 24.44° C | 35% | 1019 hPa | 0 mm | - | 417 W/m² | - |
| 1777904123 | 24.44° C | 38% | 1018.9 hPa | 0 mm | - | 405 W/m² | - |
| 1777903820 | 24.44° C | 36% | 1019 hPa | 0 mm | - | 394 W/m² | - |
| 1777903517 | 24.44° C | 38% | 1018.8 hPa | 0 mm | - | 380 W/m² | - |
| 1777903213 | 23.89° C | 36% | 1018.8 hPa | 0 mm | - | 368 W/m² | - |
| 1777902909 | 23.89° C | 39% | 1018.8 hPa | 0 mm | - | 348 W/m² | - |
| 1777902606 | 23.89° C | 40% | 1018.7 hPa | 0 mm | - | 342 W/m² | - |
| 1777902303 | 23.89° C | 40% | 1018.8 hPa | 0 mm | - | 327 W/m² | - |
| 1777902001 | 23.89° C | 40% | 1018.4 hPa | 0 mm | - | 312 W/m² | - |
| 1777901699 | 23.33° C | 41% | 1018.9 hPa | 0 mm | - | 292 W/m² | - |
| 1777901396 | 23.89° C | 42% | 1018.8 hPa | 0 mm | - | 289 W/m² | - |
| 1777901093 | 23.89° C | 45% | 1018.6 hPa | 0 mm | - | 283 W/m² | - |
| 1777900790 | 23.33° C | 42% | 1018.9 hPa | 0 mm | - | 245 W/m² | - |
| 1777900488 | 22.78° C | 45% | 1018.9 hPa | 0 mm | - | 251 W/m² | - |
| 1777900185 | 22.78° C | 53% | 1018.7 hPa | 0 mm | - | 237 W/m² | - |
| 1777899881 | 22.78° C | 58% | 1018.7 hPa | 0 mm | - | 162 W/m² | - |
| 1777899578 | 23.33° C | 64% | 1018.7 hPa | 0 mm | - | 142 W/m² | - |
* Rain latest hour (hover to see other rain measurements)
** Current wind speed in m/s (hover to see current wind gust speed)